Year,Month,Day,Hour,Minute,Value (Times are PST for temperature in C)
2013,05,01,00,00,7.80
2013,05,01,00,01,7.80
2013,05,01,00,02,7.80
2013,05,01,00,03,7.80
2013,05,01,00,04,7.80
2013,05,01,00,05,7.80
2013,05,01,00,06,7.80
2013,05,01,00,07,7.80
2013,05,01,00,08,7.80
2013,05,01,00,09,7.80
2013,05,01,00,10,7.80
2013,05,01,00,11,7.70
2013,05,01,00,12,7.70
2013,05,01,00,13,7.70
2013,05,01,00,14,7.70
2013,05,01,00,15,7.70
2013,05,01,00,16,7.70
2013,05,01,00,17,7.70
2013,05,01,00,18,7.70
2013,05,01,00,19,7.70
2013,05,01,00,20,7.70
2013,05,01,00,21,7.70
2013,05,01,00,22,7.70
2013,05,01,00,23,7.70
2013,05,01,00,24,7.70
2013,05,01,00,25,7.60
2013,05,01,00,26,7.60
2013,05,01,00,27,7.60
2013,05,01,00,28,7.60
2013,05,01,00,29,7.60
2013,05,01,00,30,7.60
2013,05,01,00,31,7.60
2013,05,01,00,32,7.60
2013,05,01,00,33,7.50
2013,05,01,00,34,7.50
2013,05,01,00,35,7.50
2013,05,01,00,36,7.50
2013,05,01,00,37,7.50
2013,05,01,00,38,7.40
2013,05,01,00,39,7.40
2013,05,01,00,40,7.40
2013,05,01,00,41,7.40
2013,05,01,00,42,7.40
2013,05,01,00,43,7.40
2013,05,01,00,44,7.40
2013,05,01,00,45,7.30
2013,05,01,00,46,7.30
2013,05,01,00,47,7.30
2013,05,01,00,48,7.30
2013,05,01,00,49,7.30
2013,05,01,00,50,7.30
2013,05,01,00,51,7.30
2013,05,01,00,52,7.30
2013,05,01,00,53,7.30
2013,05,01,00,54,7.30
2013,05,01,00,55,7.30
2013,05,01,00,56,7.30
2013,05,01,00,57,7.30
2013,05,01,00,58,7.30
2013,05,01,00,59,7.40
2013,05,01,01,00,7.40
2013,05,01,01,01,7.40
2013,05,01,01,02,7.40
2013,05,01,01,03,7.40
2013,05,01,01,04,7.40
2013,05,01,01,05,7.40
2013,05,01,01,06,7.40
2013,05,01,01,07,7.40
2013,05,01,01,08,7.40
2013,05,01,01,09,7.40
2013,05,01,01,10,7.40
2013,05,01,01,11,7.40
2013,05,01,01,12,7.40
2013,05,01,01,13,7.40
2013,05,01,01,14,7.40
2013,05,01,01,15,7.40
2013,05,01,01,16,7.40
2013,05,01,01,17,7.30
2013,05,01,01,18,7.30
2013,05,01,01,19,7.30
2013,05,01,01,20,7.30
2013,05,01,01,21,7.30
2013,05,01,01,22,7.30
2013,05,01,01,23,7.30
2013,05,01,01,24,7.30
2013,05,01,01,25,7.30
2013,05,01,01,26,7.30
2013,05,01,01,27,7.30
2013,05,01,01,28,7.30
2013,05,01,01,29,7.30
2013,05,01,01,30,7.20
2013,05,01,01,31,7.20
2013,05,01,01,32,7.20
2013,05,01,01,33,7.20
2013,05,01,01,34,7.20
2013,05,01,01,35,7.20
2013,05,01,01,36,7.20
2013,05,01,01,37,7.20
2013,05,01,01,38,7.20
2013,05,01,01,39,7.20
2013,05,01,01,40,7.20
2013,05,01,01,41,7.20
2013,05,01,01,42,7.20
2013,05,01,01,43,7.20
2013,05,01,01,44,7.20
2013,05,01,01,45,7.20
2013,05,01,01,46,7.20
2013,05,01,01,47,7.20
2013,05,01,01,48,7.20
2013,05,01,01,49,7.20
2013,05,01,01,50,7.20
2013,05,01,01,51,7.20
2013,05,01,01,52,7.20
2013,05,01,01,53,7.20
2013,05,01,01,54,7.20
2013,05,01,01,55,7.20
2013,05,01,01,56,7.20
2013,05,01,01,57,7.10
2013,05,01,01,58,7.10
2013,05,01,01,59,7.10
2013,05,01,02,00,7.10
2013,05,01,02,01,7.10
2013,05,01,02,02,7.10
2013,05,01,02,03,7.10
2013,05,01,02,04,7.10
2013,05,01,02,05,7.10
2013,05,01,02,06,7.10
2013,05,01,02,07,7.00
2013,05,01,02,08,7.00
2013,05,01,02,09,7.00
2013,05,01,02,10,6.90
2013,05,01,02,11,6.90
2013,05,01,02,12,6.90
2013,05,01,02,13,6.90
2013,05,01,02,14,6.90
2013,05,01,02,15,6.90
2013,05,01,02,16,6.90
2013,05,01,02,17,6.90
2013,05,01,02,18,6.90
2013,05,01,02,19,6.90
2013,05,01,02,20,6.90
2013,05,01,02,21,6.90
2013,05,01,02,22,6.90
2013,05,01,02,23,6.80
2013,05,01,02,24,6.80
2013,05,01,02,25,6.80
2013,05,01,02,26,6.80
2013,05,01,02,27,6.80
2013,05,01,02,28,6.80
2013,05,01,02,29,6.80
2013,05,01,02,30,6.80
2013,05,01,02,31,6.80
2013,05,01,02,32,6.80
2013,05,01,02,33,6.80
2013,05,01,02,34,6.80
2013,05,01,02,35,6.80
2013,05,01,02,36,6.80
2013,05,01,02,37,6.80
2013,05,01,02,38,6.80
2013,05,01,02,39,6.80
2013,05,01,02,40,6.80
2013,05,01,02,41,6.80
2013,05,01,02,42,6.80
2013,05,01,02,43,6.80
2013,05,01,02,44,6.80
2013,05,01,02,45,6.80
2013,05,01,02,46,6.80
2013,05,01,02,47,6.80
2013,05,01,02,48,6.70
2013,05,01,02,49,6.70
2013,05,01,02,50,6.70
2013,05,01,02,51,6.70
2013,05,01,02,52,6.70
2013,05,01,02,53,6.70
2013,05,01,02,54,6.70
2013,05,01,02,55,6.70
2013,05,01,02,56,6.70
2013,05,01,02,57,6.70
2013,05,01,02,58,6.70
2013,05,01,02,59,6.60
2013,05,01,03,00,6.60
2013,05,01,03,01,6.60
2013,05,01,03,02,6.60
2013,05,01,03,03,6.60
2013,05,01,03,04,6.60
2013,05,01,03,05,6.60
2013,05,01,03,06,6.60
2013,05,01,03,07,6.60
2013,05,01,03,08,6.60
2013,05,01,03,09,6.60
2013,05,01,03,10,6.60
2013,05,01,03,11,6.60
2013,05,01,03,12,6.60
2013,05,01,03,13,6.60
2013,05,01,03,14,6.60
2013,05,01,03,15,6.50
2013,05,01,03,16,6.50
2013,05,01,03,17,6.50
2013,05,01,03,18,6.40
2013,05,01,03,19,6.40
2013,05,01,03,20,6.30
2013,05,01,03,21,6.30
2013,05,01,03,22,6.20
2013,05,01,03,23,6.20
2013,05,01,03,24,6.10
2013,05,01,03,25,6.00
2013,05,01,03,26,5.90
2013,05,01,03,27,5.80
2013,05,01,03,28,5.70
2013,05,01,03,29,5.70
2013,05,01,03,30,5.60
2013,05,01,03,31,5.60
2013,05,01,03,32,5.50
2013,05,01,03,33,5.50
2013,05,01,03,34,5.40
2013,05,01,03,35,5.30
2013,05,01,03,36,5.30
2013,05,01,03,37,5.20
2013,05,01,03,38,5.10
2013,05,01,03,39,5.00
2013,05,01,03,40,5.00
2013,05,01,03,41,4.90
2013,05,01,03,42,4.80
2013,05,01,03,43,4.70
2013,05,01,03,44,4.70
2013,05,01,03,45,4.60
2013,05,01,03,46,4.60
2013,05,01,03,47,4.50
2013,05,01,03,48,4.40
2013,05,01,03,49,4.40
2013,05,01,03,50,4.30
2013,05,01,03,51,4.30
2013,05,01,03,52,4.20
2013,05,01,03,53,4.20
2013,05,01,03,54,4.10
2013,05,01,03,55,4.10
2013,05,01,03,56,4.00
2013,05,01,03,57,3.90
2013,05,01,03,58,3.90
2013,05,01,03,59,3.80
2013,05,01,04,00,3.80
2013,05,01,04,01,3.70
2013,05,01,04,02,3.70
2013,05,01,04,03,3.60
2013,05,01,04,04,3.60
2013,05,01,04,05,3.50
2013,05,01,04,06,3.50
2013,05,01,04,07,3.40
2013,05,01,04,08,3.40
2013,05,01,04,09,3.40
2013,05,01,04,10,3.40
2013,05,01,04,11,3.30
2013,05,01,04,12,3.30
2013,05,01,04,13,3.30
2013,05,01,04,14,3.30
2013,05,01,04,15,3.30
2013,05,01,04,16,3.20
2013,05,01,04,17,3.20
2013,05,01,04,18,3.20
2013,05,01,04,19,3.20
2013,05,01,04,20,3.20
2013,05,01,04,21,3.20
2013,05,01,04,22,3.20
2013,05,01,04,23,3.20
2013,05,01,04,24,3.10
2013,05,01,04,25,3.10
2013,05,01,04,26,3.10
2013,05,01,04,27,3.10
2013,05,01,04,28,3.10
2013,05,01,04,29,3.10
2013,05,01,04,30,3.10
2013,05,01,04,31,3.10
2013,05,01,04,32,3.10
2013,05,01,04,33,3.10
2013,05,01,04,34,3.10
2013,05,01,04,35,3.10
2013,05,01,04,36,3.10
2013,05,01,04,37,3.10
2013,05,01,04,38,3.10
2013,05,01,04,39,3.10
2013,05,01,04,40,3.10
2013,05,01,04,41,3.10
2013,05,01,04,42,3.10
2013,05,01,04,43,3.10
2013,05,01,04,44,3.10
2013,05,01,04,45,3.10
2013,05,01,04,46,3.10
2013,05,01,04,47,3.00
2013,05,01,04,48,3.00
2013,05,01,04,49,3.00
2013,05,01,04,50,2.90
2013,05,01,04,51,2.90
2013,05,01,04,52,2.90
2013,05,01,04,53,2.90
2013,05,01,04,54,2.90
2013,05,01,04,55,2.90
2013,05,01,04,56,2.90
2013,05,01,04,57,2.80
2013,05,01,04,58,2.80
2013,05,01,04,59,2.90
2013,05,01,05,00,2.90
2013,05,01,05,01,2.90
2013,05,01,05,02,2.90
2013,05,01,05,03,2.90
2013,05,01,05,04,2.90
2013,05,01,05,05,2.90
2013,05,01,05,06,2.90
2013,05,01,05,07,2.90
2013,05,01,05,08,2.80
2013,05,01,05,09,2.80
2013,05,01,05,10,2.80
2013,05,01,05,11,2.80
2013,05,01,05,12,2.80
2013,05,01,05,13,2.70
2013,05,01,05,14,2.70
2013,05,01,05,15,2.70
2013,05,01,05,16,2.70
2013,05,01,05,17,2.60
2013,05,01,05,18,2.60
2013,05,01,05,19,2.60
2013,05,01,05,20,2.60
2013,05,01,05,21,2.60
2013,05,01,05,22,2.60
2013,05,01,05,23,2.60
2013,05,01,05,24,2.50
2013,05,01,05,25,2.50
2013,05,01,05,26,2.50
2013,05,01,05,27,2.50
2013,05,01,05,28,2.50
2013,05,01,05,29,2.50
2013,05,01,05,30,2.50
2013,05,01,05,31,2.50
2013,05,01,05,32,2.50
2013,05,01,05,33,2.60
2013,05,01,05,34,2.60
2013,05,01,05,35,2.60
2013,05,01,05,36,2.60
2013,05,01,05,37,2.60
2013,05,01,05,38,2.60
2013,05,01,05,39,2.60
2013,05,01,05,40,2.60
2013,05,01,05,41,2.60
2013,05,01,05,42,2.60
2013,05,01,05,43,2.60
2013,05,01,05,44,2.60
2013,05,01,05,45,2.60
2013,05,01,05,46,2.60
2013,05,01,05,47,2.60
2013,05,01,05,48,2.50
2013,05,01,05,49,2.50
2013,05,01,05,50,2.50
2013,05,01,05,51,2.50
2013,05,01,05,52,2.50
2013,05,01,05,53,2.50
2013,05,01,05,54,2.40
2013,05,01,05,55,2.40
2013,05,01,05,56,2.40
2013,05,01,05,57,2.40
2013,05,01,05,58,2.40
2013,05,01,05,59,2.40
2013,05,01,06,00,2.40
2013,05,01,06,01,2.40
2013,05,01,06,02,2.40
2013,05,01,06,03,2.40
2013,05,01,06,04,2.40
2013,05,01,06,05,2.40
2013,05,01,06,06,2.40
2013,05,01,06,07,2.40
2013,05,01,06,08,2.40
2013,05,01,06,09,2.40
2013,05,01,06,10,2.40
2013,05,01,06,11,2.40
2013,05,01,06,12,2.40
2013,05,01,06,13,2.40
2013,05,01,06,14,2.40
2013,05,01,06,15,2.40
2013,05,01,06,16,2.40
2013,05,01,06,17,2.40
2013,05,01,06,18,2.40
2013,05,01,06,19,2.40
2013,05,01,06,20,2.40
2013,05,01,06,21,2.40
2013,05,01,06,22,2.40
2013,05,01,06,23,2.40
2013,05,01,06,24,2.40
2013,05,01,06,25,2.40
2013,05,01,06,26,2.40
2013,05,01,06,27,2.40
2013,05,01,06,28,2.40
2013,05,01,06,29,2.50
2013,05,01,06,30,2.50
2013,05,01,06,31,2.50
2013,05,01,06,32,2.60
2013,05,01,06,33,2.60
2013,05,01,06,34,2.70
2013,05,01,06,35,2.70
2013,05,01,06,36,2.80
2013,05,01,06,37,2.80
2013,05,01,06,38,2.90
2013,05,01,06,39,2.90
2013,05,01,06,40,2.90
2013,05,01,06,41,3.00
2013,05,01,06,42,3.00
2013,05,01,06,43,3.00
2013,05,01,06,44,3.10
2013,05,01,06,45,3.10
2013,05,01,06,46,3.10
2013,05,01,06,47,3.20
2013,05,01,06,48,3.20
2013,05,01,06,49,3.30
2013,05,01,06,50,3.30
2013,05,01,06,51,3.40
2013,05,01,06,52,3.40
2013,05,01,06,53,3.50
2013,05,01,06,54,3.50
2013,05,01,06,55,3.60
2013,05,01,06,56,3.70
2013,05,01,06,57,3.70
2013,05,01,06,58,3.70
2013,05,01,06,59,3.80
2013,05,01,07,00,3.80
2013,05,01,07,01,3.90
2013,05,01,07,02,3.90
2013,05,01,07,03,4.00
2013,05,01,07,04,4.10
2013,05,01,07,05,4.10
2013,05,01,07,06,4.20
2013,05,01,07,07,4.20
2013,05,01,07,08,4.30
2013,05,01,07,09,4.40
2013,05,01,07,10,4.50
2013,05,01,07,11,4.60
2013,05,01,07,12,4.70
2013,05,01,07,13,4.80
2013,05,01,07,14,4.90
2013,05,01,07,15,5.00
2013,05,01,07,16,5.10
2013,05,01,07,17,5.20
2013,05,01,07,18,5.30
2013,05,01,07,19,5.40
2013,05,01,07,20,5.50
2013,05,01,07,21,5.50
2013,05,01,07,22,5.60
2013,05,01,07,23,5.70
2013,05,01,07,24,5.80
2013,05,01,07,25,5.80
2013,05,01,07,26,5.90
2013,05,01,07,27,5.90
2013,05,01,07,28,6.00
2013,05,01,07,29,6.00
2013,05,01,07,30,6.10
2013,05,01,07,31,6.10
2013,05,01,07,32,6.10
2013,05,01,07,33,6.20
2013,05,01,07,34,6.20
2013,05,01,07,35,6.20
2013,05,01,07,36,6.20
2013,05,01,07,37,6.20
2013,05,01,07,38,6.20
2013,05,01,07,39,6.20
2013,05,01,07,40,6.20
2013,05,01,07,41,6.20
2013,05,01,07,42,6.20
2013,05,01,07,43,6.30
2013,05,01,07,44,6.30
2013,05,01,07,45,6.30
2013,05,01,07,46,6.40
2013,05,01,07,47,6.40
2013,05,01,07,48,6.40
2013,05,01,07,49,6.50
2013,05,01,07,50,6.50
2013,05,01,07,51,6.60
2013,05,01,07,52,6.60
2013,05,01,07,53,6.60
2013,05,01,07,54,6.60
2013,05,01,07,55,6.70
2013,05,01,07,56,6.70
2013,05,01,07,57,6.70
2013,05,01,07,58,6.80
2013,05,01,07,59,6.80
2013,05,01,08,00,6.80
2013,05,01,08,01,6.90
2013,05,01,08,02,7.00
2013,05,01,08,03,7.00
2013,05,01,08,04,7.10
2013,05,01,08,05,7.20
2013,05,01,08,06,7.30
2013,05,01,08,07,7.40
2013,05,01,08,08,7.50
2013,05,01,08,09,7.60
2013,05,01,08,10,7.70
2013,05,01,08,11,7.80
2013,05,01,08,12,7.80
2013,05,01,08,13,7.90
2013,05,01,08,14,7.90
2013,05,01,08,15,8.00
2013,05,01,08,16,8.10
2013,05,01,08,17,8.10
2013,05,01,08,18,8.20
2013,05,01,08,19,8.30
2013,05,01,08,20,8.40
2013,05,01,08,21,8.40
2013,05,01,08,22,8.50
2013,05,01,08,23,8.60
2013,05,01,08,24,8.70
2013,05,01,08,25,8.80
2013,05,01,08,26,8.90
2013,05,01,08,27,9.00
2013,05,01,08,28,9.10
2013,05,01,08,29,9.20
2013,05,01,08,30,9.30
2013,05,01,08,31,9.40
2013,05,01,08,32,9.50
2013,05,01,08,33,9.50
2013,05,01,08,34,9.60
2013,05,01,08,35,9.60
2013,05,01,08,36,9.60
2013,05,01,08,37,9.70
2013,05,01,08,38,9.70
2013,05,01,08,39,9.70
2013,05,01,08,40,9.70
2013,05,01,08,41,9.80
2013,05,01,08,42,9.80
2013,05,01,08,43,9.80
2013,05,01,08,44,9.90
2013,05,01,08,45,10.00
2013,05,01,08,46,10.00
2013,05,01,08,47,10.10
2013,05,01,08,48,10.10
2013,05,01,08,49,10.10
2013,05,01,08,50,10.20
2013,05,01,08,51,10.20
2013,05,01,08,52,10.30
2013,05,01,08,53,10.30
2013,05,01,08,54,10.30
2013,05,01,08,55,10.30
2013,05,01,08,56,10.20
2013,05,01,08,57,10.20
2013,05,01,08,58,10.20
2013,05,01,08,59,10.20
2013,05,01,09,00,10.20
2013,05,01,09,01,10.20
2013,05,01,09,02,10.20
2013,05,01,09,03,10.20
2013,05,01,09,04,10.20
2013,05,01,09,05,10.20
2013,05,01,09,06,10.20
2013,05,01,09,07,10.30
2013,05,01,09,08,10.30
2013,05,01,09,09,10.30
2013,05,01,09,10,10.30
2013,05,01,09,11,10.30
2013,05,01,09,12,10.30
2013,05,01,09,13,10.30
2013,05,01,09,14,10.30
2013,05,01,09,15,10.40
2013,05,01,09,16,10.40
2013,05,01,09,17,10.40
2013,05,01,09,18,10.40
2013,05,01,09,19,10.40
2013,05,01,09,20,10.40
2013,05,01,09,21,10.40
2013,05,01,09,22,10.40
2013,05,01,09,23,10.40
2013,05,01,09,24,10.40
2013,05,01,09,25,10.40
2013,05,01,09,26,10.40
2013,05,01,09,27,10.40
2013,05,01,09,28,10.40
2013,05,01,09,29,10.40
2013,05,01,09,30,10.40
2013,05,01,09,31,10.40
2013,05,01,09,32,10.40
2013,05,01,09,33,10.40
2013,05,01,09,34,10.40
2013,05,01,09,35,10.50
2013,05,01,09,36,10.60
2013,05,01,09,37,10.60
2013,05,01,09,38,10.60
2013,05,01,09,39,10.60
2013,05,01,09,40,10.60
2013,05,01,09,41,10.60
2013,05,01,09,42,10.60
2013,05,01,09,43,10.60
2013,05,01,09,44,10.70
2013,05,01,09,45,10.80
2013,05,01,09,46,10.80
2013,05,01,09,47,10.90
2013,05,01,09,48,10.90
2013,05,01,09,49,11.00
2013,05,01,09,50,11.10
2013,05,01,09,51,11.10
2013,05,01,09,52,11.20
2013,05,01,09,53,11.20
2013,05,01,09,54,11.10
2013,05,01,09,55,11.10
2013,05,01,09,56,11.00
2013,05,01,09,57,11.00
2013,05,01,09,58,11.00
2013,05,01,09,59,11.00
2013,05,01,10,00,11.00
2013,05,01,10,01,11.00
2013,05,01,10,02,11.10
2013,05,01,10,03,11.10
2013,05,01,10,04,11.20
2013,05,01,10,05,11.20
2013,05,01,10,06,11.30
2013,05,01,10,07,11.30
2013,05,01,10,08,11.30
2013,05,01,10,09,11.40
2013,05,01,10,10,11.40
2013,05,01,10,11,11.40
2013,05,01,10,12,11.40
2013,05,01,10,13,11.40
2013,05,01,10,14,11.40
2013,05,01,10,15,11.30
2013,05,01,10,16,11.30
2013,05,01,10,17,11.20
2013,05,01,10,18,11.20
2013,05,01,10,19,11.10
2013,05,01,10,20,11.10
2013,05,01,10,21,11.10
2013,05,01,10,22,11.10
2013,05,01,10,23,11.10
2013,05,01,10,24,11.10
2013,05,01,10,25,11.20
2013,05,01,10,26,11.20
2013,05,01,10,27,11.20
2013,05,01,10,28,11.30
2013,05,01,10,29,11.40
2013,05,01,10,30,11.40
2013,05,01,10,31,11.40
2013,05,01,10,32,11.50
2013,05,01,10,33,11.50
2013,05,01,10,34,11.50
2013,05,01,10,35,11.40
2013,05,01,10,36,11.50
2013,05,01,10,37,11.50
2013,05,01,10,38,11.50
2013,05,01,10,39,11.50
2013,05,01,10,40,11.40
2013,05,01,10,41,11.40
2013,05,01,10,42,11.50
2013,05,01,10,43,11.50
2013,05,01,10,44,11.50
2013,05,01,10,45,11.50
2013,05,01,10,46,11.40
2013,05,01,10,47,11.40
2013,05,01,10,48,11.40
2013,05,01,10,49,11.40
2013,05,01,10,50,11.40
2013,05,01,10,51,11.40
2013,05,01,10,52,11.50
2013,05,01,10,53,11.50
2013,05,01,10,54,11.50
2013,05,01,10,55,11.60
2013,05,01,10,56,11.60
2013,05,01,10,57,11.60
2013,05,01,10,58,11.70
2013,05,01,10,59,11.80
2013,05,01,11,00,11.80
2013,05,01,11,01,11.90
2013,05,01,11,02,11.90
2013,05,01,11,03,11.90
2013,05,01,11,04,11.90
2013,05,01,11,05,11.90
2013,05,01,11,06,12.00
2013,05,01,11,07,11.90
2013,05,01,11,08,11.80
2013,05,01,11,09,11.80
2013,05,01,11,10,11.80
2013,05,01,11,11,11.80
2013,05,01,11,12,11.80
2013,05,01,11,13,11.90
2013,05,01,11,14,11.90
2013,05,01,11,15,12.00
2013,05,01,11,16,12.00
2013,05,01,11,17,12.10
2013,05,01,11,18,12.20
2013,05,01,11,19,12.30
2013,05,01,11,20,12.30
2013,05,01,11,21,12.30
2013,05,01,11,22,12.30
2013,05,01,11,23,12.40
2013,05,01,11,24,12.40
2013,05,01,11,25,12.40
2013,05,01,11,26,12.40
2013,05,01,11,27,12.30
2013,05,01,11,28,12.30
2013,05,01,11,29,12.30
2013,05,01,11,30,12.30
2013,05,01,11,31,12.30
2013,05,01,11,32,12.30
2013,05,01,11,33,12.40
2013,05,01,11,34,12.40
2013,05,01,11,35,12.40
2013,05,01,11,36,12.40
2013,05,01,11,37,12.30
2013,05,01,11,38,12.30
2013,05,01,11,39,12.30
2013,05,01,11,40,12.30
2013,05,01,11,41,12.30
2013,05,01,11,42,12.30
2013,05,01,11,43,12.30
2013,05,01,11,44,12.30
2013,05,01,11,45,12.30
2013,05,01,11,46,12.30
2013,05,01,11,47,12.30
2013,05,01,11,48,12.30
2013,05,01,11,49,12.20
2013,05,01,11,50,12.20
2013,05,01,11,51,12.20
2013,05,01,11,52,12.30
2013,05,01,11,53,12.30
2013,05,01,11,54,12.30
2013,05,01,11,55,12.40
2013,05,01,11,56,12.50
2013,05,01,11,57,12.60
2013,05,01,11,58,12.70
2013,05,01,11,59,12.70
2013,05,01,12,00,12.70
2013,05,01,12,01,12.70
2013,05,01,12,02,12.70
2013,05,01,12,03,12.70
2013,05,01,12,04,12.60
2013,05,01,12,05,12.60
2013,05,01,12,06,12.60
2013,05,01,12,07,12.50
2013,05,01,12,08,12.50
2013,05,01,12,09,12.50
2013,05,01,12,10,12.60
2013,05,01,12,11,12.60
2013,05,01,12,12,12.70
2013,05,01,12,13,12.80
2013,05,01,12,14,12.70
2013,05,01,12,15,12.60
2013,05,01,12,16,12.50
2013,05,01,12,17,12.30
2013,05,01,12,18,12.30
2013,05,01,12,19,12.20
2013,05,01,12,20,12.20
2013,05,01,12,21,12.20
2013,05,01,12,22,12.10
2013,05,01,12,23,12.00
2013,05,01,12,24,12.00
2013,05,01,12,25,12.00
2013,05,01,12,26,12.10
2013,05,01,12,27,12.10
2013,05,01,12,28,12.20
2013,05,01,12,29,12.30
2013,05,01,12,30,12.30
2013,05,01,12,31,12.40
2013,05,01,12,32,12.50
2013,05,01,12,33,12.60
2013,05,01,12,34,12.70
2013,05,01,12,35,12.80
2013,05,01,12,36,12.80
2013,05,01,12,37,12.80
2013,05,01,12,38,12.70
2013,05,01,12,39,12.70
2013,05,01,12,40,12.70
2013,05,01,12,41,12.60
2013,05,01,12,42,12.60
2013,05,01,12,43,12.60
2013,05,01,12,44,12.60
2013,05,01,12,45,12.70
2013,05,01,12,46,12.70
2013,05,01,12,47,12.80
2013,05,01,12,48,12.90
2013,05,01,12,49,13.00
2013,05,01,12,50,13.10
2013,05,01,12,51,13.10
2013,05,01,12,52,13.20
2013,05,01,12,53,13.20
2013,05,01,12,54,13.30
2013,05,01,12,55,13.40
2013,05,01,12,56,13.50
2013,05,01,12,57,13.60
2013,05,01,12,58,13.50
2013,05,01,12,59,13.50
2013,05,01,13,00,13.40
2013,05,01,13,01,13.40
2013,05,01,13,02,13.50
2013,05,01,13,03,13.50
2013,05,01,13,04,13.60
2013,05,01,13,05,13.60
2013,05,01,13,06,13.70
2013,05,01,13,07,13.70
2013,05,01,13,08,13.70
2013,05,01,13,09,13.80
2013,05,01,13,10,13.80
2013,05,01,13,11,13.80
2013,05,01,13,12,13.80
2013,05,01,13,13,13.80
2013,05,01,13,14,13.80
2013,05,01,13,15,13.80
2013,05,01,13,16,13.80
2013,05,01,13,17,13.80
2013,05,01,13,18,13.80
2013,05,01,13,19,13.80
2013,05,01,13,20,13.80
2013,05,01,13,21,13.80
2013,05,01,13,22,13.80
2013,05,01,13,23,13.80
2013,05,01,13,24,13.70
2013,05,01,13,25,13.60
2013,05,01,13,26,13.60
2013,05,01,13,27,13.60
2013,05,01,13,28,13.60
2013,05,01,13,29,13.70
2013,05,01,13,30,13.70
2013,05,01,13,31,13.70
2013,05,01,13,32,13.70
2013,05,01,13,33,13.80
2013,05,01,13,34,13.80
2013,05,01,13,35,13.90
2013,05,01,13,36,14.00
2013,05,01,13,37,14.10
2013,05,01,13,38,14.00
2013,05,01,13,39,13.90
2013,05,01,13,40,13.80
2013,05,01,13,41,13.90
2013,05,01,13,42,13.90
2013,05,01,13,43,13.90
2013,05,01,13,44,14.00
2013,05,01,13,45,14.00
2013,05,01,13,46,14.00
2013,05,01,13,47,14.00
2013,05,01,13,48,13.90
2013,05,01,13,49,13.90
2013,05,01,13,50,14.00
2013,05,01,13,51,14.10
2013,05,01,13,52,14.10
2013,05,01,13,53,14.10
2013,05,01,13,54,14.10
2013,05,01,13,55,14.10
2013,05,01,13,56,14.20
2013,05,01,13,57,14.20
2013,05,01,13,58,14.30
2013,05,01,13,59,14.40
2013,05,01,14,00,14.50
2013,05,01,14,01,14.60
2013,05,01,14,02,14.60
2013,05,01,14,03,14.70
2013,05,01,14,04,14.70
2013,05,01,14,05,14.70
2013,05,01,14,06,14.80
2013,05,01,14,07,14.90
2013,05,01,14,08,15.00
2013,05,01,14,09,15.00
2013,05,01,14,10,15.10
2013,05,01,14,11,15.20
2013,05,01,14,12,15.30
2013,05,01,14,13,15.30
2013,05,01,14,14,15.20
2013,05,01,14,15,15.20
2013,05,01,14,16,15.00
2013,05,01,14,17,14.90
2013,05,01,14,18,14.80
2013,05,01,14,19,14.70
2013,05,01,14,20,14.60
2013,05,01,14,21,14.60
2013,05,01,14,22,14.60
2013,05,01,14,23,14.50
2013,05,01,14,24,14.50
2013,05,01,14,25,14.50
2013,05,01,14,26,14.40
2013,05,01,14,27,14.40
2013,05,01,14,28,14.40
2013,05,01,14,29,14.40
2013,05,01,14,30,14.40
2013,05,01,14,31,14.40
2013,05,01,14,32,14.50
2013,05,01,14,33,14.50
2013,05,01,14,34,14.60
2013,05,01,14,35,14.70
2013,05,01,14,36,14.80
2013,05,01,14,37,14.90
2013,05,01,14,38,14.90
2013,05,01,14,39,14.90
2013,05,01,14,40,14.90
2013,05,01,14,41,14.90
2013,05,01,14,42,14.90
2013,05,01,14,43,15.00
2013,05,01,14,44,15.10
2013,05,01,14,45,15.10
2013,05,01,14,46,15.10
2013,05,01,14,47,15.10
2013,05,01,14,48,15.10
2013,05,01,14,49,15.10
2013,05,01,14,50,15.10
2013,05,01,14,51,15.10
2013,05,01,14,52,15.10
2013,05,01,14,53,15.10
2013,05,01,14,54,15.10
2013,05,01,14,55,15.10
2013,05,01,14,56,15.10
2013,05,01,14,57,15.10
2013,05,01,14,58,15.00
2013,05,01,14,59,15.00
2013,05,01,15,00,15.00
2013,05,01,15,01,15.00
2013,05,01,15,02,15.10
2013,05,01,15,03,15.10
2013,05,01,15,04,15.00
2013,05,01,15,05,15.00
2013,05,01,15,06,15.00
2013,05,01,15,07,15.10
2013,05,01,15,08,15.10
2013,05,01,15,09,15.10
2013,05,01,15,10,15.00
2013,05,01,15,11,14.90
2013,05,01,15,12,14.90
2013,05,01,15,13,14.80
2013,05,01,15,14,14.70
2013,05,01,15,15,14.70
2013,05,01,15,16,14.60
2013,05,01,15,17,14.60
2013,05,01,15,18,14.50
2013,05,01,15,19,14.40
2013,05,01,15,20,14.40
2013,05,01,15,21,14.40
2013,05,01,15,22,14.30
2013,05,01,15,23,14.30
2013,05,01,15,24,14.40
2013,05,01,15,25,14.40
2013,05,01,15,26,14.60
2013,05,01,15,27,14.70
2013,05,01,15,28,14.80
2013,05,01,15,29,14.90
2013,05,01,15,30,14.80
2013,05,01,15,31,14.80
2013,05,01,15,32,14.70
2013,05,01,15,33,14.70
2013,05,01,15,34,14.70
2013,05,01,15,35,14.60
2013,05,01,15,36,14.60
2013,05,01,15,37,14.60
2013,05,01,15,38,14.60
2013,05,01,15,39,14.60
2013,05,01,15,40,14.60
2013,05,01,15,41,14.60
2013,05,01,15,42,14.60
2013,05,01,15,43,14.70
2013,05,01,15,44,14.70
2013,05,01,15,45,14.70
2013,05,01,15,46,14.80
2013,05,01,15,47,14.90
2013,05,01,15,48,14.90
2013,05,01,15,49,14.90
2013,05,01,15,50,15.00
2013,05,01,15,51,15.00
2013,05,01,15,52,15.10
2013,05,01,15,53,15.10
2013,05,01,15,54,15.10
2013,05,01,15,55,15.10
2013,05,01,15,56,15.00
2013,05,01,15,57,15.00
2013,05,01,15,58,15.00
2013,05,01,15,59,15.00
2013,05,01,16,00,14.90
2013,05,01,16,01,14.90
2013,05,01,16,02,14.90
2013,05,01,16,03,14.90
2013,05,01,16,04,14.90
2013,05,01,16,05,14.90
2013,05,01,16,06,15.00
2013,05,01,16,07,15.00
2013,05,01,16,08,15.20
2013,05,01,16,09,15.30
2013,05,01,16,10,15.30
2013,05,01,16,11,15.40
2013,05,01,16,12,15.40
2013,05,01,16,13,15.50
2013,05,01,16,14,15.50
2013,05,01,16,15,15.60
2013,05,01,16,16,15.60
2013,05,01,16,17,15.70
2013,05,01,16,18,15.70
2013,05,01,16,19,15.60
2013,05,01,16,20,15.60
2013,05,01,16,21,15.50
2013,05,01,16,22,15.50
2013,05,01,16,23,15.40
2013,05,01,16,24,15.40
2013,05,01,16,25,15.30
2013,05,01,16,26,15.30
2013,05,01,16,27,15.30
2013,05,01,16,28,15.30
2013,05,01,16,29,15.20
2013,05,01,16,30,15.20
2013,05,01,16,31,15.10
2013,05,01,16,32,15.10
2013,05,01,16,33,15.10
2013,05,01,16,34,15.00
2013,05,01,16,35,15.00
2013,05,01,16,36,14.90
2013,05,01,16,37,14.90
2013,05,01,16,38,14.80
2013,05,01,16,39,14.80
2013,05,01,16,40,14.80
2013,05,01,16,41,14.80
2013,05,01,16,42,14.90
2013,05,01,16,43,15.00
2013,05,01,16,44,15.10
2013,05,01,16,45,15.20
2013,05,01,16,46,15.30
2013,05,01,16,47,15.30
2013,05,01,16,48,15.40
2013,05,01,16,49,15.40
2013,05,01,16,50,15.50
2013,05,01,16,51,15.50
2013,05,01,16,52,15.50
2013,05,01,16,53,15.60
2013,05,01,16,54,15.70
2013,05,01,16,55,15.70
2013,05,01,16,56,15.70
2013,05,01,16,57,15.70
2013,05,01,16,58,15.70
2013,05,01,16,59,15.70
2013,05,01,17,00,15.70
2013,05,01,17,01,15.70
2013,05,01,17,02,15.60
2013,05,01,17,03,15.50
2013,05,01,17,04,15.40
2013,05,01,17,05,15.40
2013,05,01,17,06,15.50
2013,05,01,17,07,15.60
2013,05,01,17,08,15.60
2013,05,01,17,09,15.70
2013,05,01,17,10,15.70
2013,05,01,17,11,15.70
2013,05,01,17,12,15.80
2013,05,01,17,13,15.80
2013,05,01,17,14,15.80
2013,05,01,17,15,15.90
2013,05,01,17,16,15.90
2013,05,01,17,17,15.90
2013,05,01,17,18,15.90
2013,05,01,17,19,15.90
2013,05,01,17,20,15.90
2013,05,01,17,21,15.80
2013,05,01,17,22,15.80
2013,05,01,17,23,15.80
2013,05,01,17,24,15.80
2013,05,01,17,25,15.70
2013,05,01,17,26,15.70
2013,05,01,17,27,15.70
2013,05,01,17,28,15.70
2013,05,01,17,29,15.70
2013,05,01,17,30,15.70
2013,05,01,17,31,15.70
2013,05,01,17,32,15.70
2013,05,01,17,33,15.80
2013,05,01,17,34,15.80
2013,05,01,17,35,15.90
2013,05,01,17,36,15.90
2013,05,01,17,37,15.80
2013,05,01,17,38,15.70
2013,05,01,17,39,15.50
2013,05,01,17,40,15.30
2013,05,01,17,41,15.10
2013,05,01,17,42,15.00